User: anonymous
Location: Unspecified
(0.0000°N, 0.0000°E)
Time: 06:51:00
(UTC+02:00)
Language:

SeaSat 1 - Orbit

View from above orbital plane
View from above orbital plane
View from above satellite
View from above satellite

Ground track
Ground track

The orbit data is extracted from the following two-line orbital elements,

1 10967U 78064A   14231.11570189  .00000015  00000-0  45091-4 0  3590
2 10967 107.9906 302.4235 0002897 263.8397 128.0657 14.43057032897552
Epoch (UTC): 19 August 2014 02:46:36
Eccentricity: 0.0002897
inclination: 107.9906°
perigee height: 746 km
apogee height: 750 km
right ascension of ascending node: 302.4235°
argument of perigee: 263.8397°
revolutions per day: 14.43057032
mean anomaly at epoch: 128.0657°
orbit number at epoch: 89755

The dashed part of the orbit path shows where the satellite is in the earth's shadow,  

DLR